Location: Atlantic Beach
(40.5890°N, 73.7290°W)
Time: 08:35:56
(UTC+00:00)

Envisat - Pass Details

Date: 31 January 2021
Orbit: 764 x 766 km, 98.1° (Epoch: 24 February)

Event Time Altitude Azimuth Distance (km) Brightness Sun altitude
Rises 09:14:13 0° 35° (NE) 3,237 6.7 -32.7°
Reaches altitude 10° 09:18:03 10° 65° (ENE) 2,304 6.2 -31.9°
Maximum altitude 09:20:08 12° 89° (E) 2,134 6.1 -31.5°
Drops below altitude 10° 09:22:13 10° 114° (ESE) 2,297 6.2 -31.1°
Sets 09:26:00 0° 143° (SE) 3,216 6.7 -30.4°
